| time (UTC) | temp C | wind direction | speed KPH | gust KPH | rain 1hr cm | rain 24hr cm | rain mn cm | humidity % | barometer mb |
| 20260503213647 | 16 | 329 | 0.0 | 3.2 | 0.00 | 0.00 | 0.00 | 95 | 1000.3 |
| 20260503212648 | 15 | 35 | 0.0 | 1.6 | 0.00 | 0.00 | 0.00 | 95 | 1000.3 |
| 20260503211648 | 15 | 35 | 0.0 | 0.0 | 0.00 | 0.00 | 0.00 | 95 | 1000.3 |
| 20260503210650 | 15 | 35 | 0.0 | 0.0 | 0.00 | 0.00 | 0.00 | 94 | 1000.1 |
| 20260503205650 | 15 | 35 | 0.0 | 0.0 | 0.00 | 0.00 | 0.00 | 94 | 1000.1 |
| 20260503204649 | 15 | 35 | 0.0 | 0.0 | 0.00 | 0.00 | 0.00 | 94 | 1000.0 |
| 20260503203649 | 15 | 35 | 0.0 | 0.0 | 0.00 | 0.00 | 0.00 | 94 | 999.9 |
| 20260503202650 | 15 | 35 | 0.0 | 3.2 | 0.00 | 0.00 | 0.00 | 94 | 999.8 |
| 20260503201647 | 15 | 35 | 0.0 | 0.0 | 0.00 | 0.00 | 0.00 | 94 | 999.6 |
| 20260503200646 | 15 | 35 | 0.0 | 0.0 | 0.00 | 0.00 | 0.00 | 94 | 999.6 |
| 20260503195647 | 15 | 35 | 0.0 | 0.0 | 0.00 | 0.00 | 0.00 | 93 | 999.5 |
| 20260503194641 | 15 | 35 | 0.0 | 0.0 | 0.00 | 0.00 | 0.00 | 93 | 999.4 |
| 20260503193639 | 15 | 35 | 0.0 | 0.0 | 0.00 | 0.00 | 0.00 | 93 | 999.3 |
| 20260503192641 | 15 | 35 | 0.0 | 0.0 | 0.00 | 0.00 | 0.00 | 93 | 999.3 |
| 20260503191640 | 15 | 35 | 0.0 | 0.0 | 0.00 | 0.00 | 0.00 | 93 | 999.3 |
| 20260503190640 | 15 | 35 | 0.0 | 1.6 | 0.00 | 0.00 | 0.00 | 93 | 999.3 |
| 20260503185639 | 15 | 35 | 0.0 | 1.6 | 0.00 | 0.00 | 0.00 | 93 | 999.3 |
| 20260503184635 | 15 | 35 | 0.0 | 0.0 | 0.00 | 0.00 | 0.00 | 92 | 999.3 |
| 20260503183636 | 15 | 35 | 0.0 | 1.6 | 0.00 | 0.00 | 0.00 | 92 | 999.3 |
| 20260503182636 | 15 | 35 | 0.0 | 1.6 | 0.00 | 0.00 | 0.00 | 92 | 999.3 |
| 20260503181631 | 15 | 35 | 0.0 | 1.6 | 0.00 | 0.00 | 0.00 | 92 | 999.1 |
| 20260503180629 | 15 | 35 | 0.0 | 1.6 | 0.00 | 0.00 | 0.00 | 92 | 999.2 |
| 20260503175626 | 15 | 35 | 0.0 | 1.6 | 0.00 | 0.00 | 0.00 | 92 | 999.3 |
| 20260503174626 | 15 | 35 | 0.0 | 3.2 | 0.00 | 0.00 | 0.00 | 91 | 999.3 |
| 20260503173628 | 15 | 52 | 0.0 | 1.6 | 0.00 | 0.00 | 0.00 | 91 | 999.3 |
| 20260503172628 | 15 | 52 | 0.0 | 3.2 | 0.00 | 0.00 | 0.00 | 91 | 999.4 |
| 20260503171626 | 16 | 22 | 0.0 | 1.6 | 0.00 | 0.00 | 0.00 | 91 | 999.6 |
| 20260503170629 | 16 | 22 | 0.0 | 0.0 | 0.00 | 0.00 | 0.00 | 90 | 999.6 |
| 20260503150621 | 17 | 151 | 0.0 | 9.7 | 0.00 | 0.00 | 0.00 | 90 | 1000.4 |
| 20260503130613 | 18 | 5 | 0.0 | 3.2 | 0.00 | 0.00 | 0.00 | 89 | 1001.5 |
| 20260503110603 | 18 | 279 | 1.6 | 8.0 | 0.00 | 0.00 | 0.00 | 88 | 1001.9 |
| 20260503100104 | 19 | 342 | 3.2 | 9.7 | 0.00 | 0.00 | 0.00 | 88 | 1001.6 |
| 20260503081555 | 20 | 113 | 3.2 | 9.7 | 0.00 | 0.00 | 0.00 | 85 | 1001.6 |
| 20260503080555 | 20 | 82 | 1.6 | 11.3 | 0.00 | 0.00 | 0.00 | 84 | 1001.7 |
| 20260503071554 | 21 | 129 | 1.6 | 9.7 | 0.00 | 0.00 | 0.00 | 80 | 1001.4 |
| 20260503070554 | 21 | 142 | 3.2 | 14.5 | 0.00 | 0.00 | 0.00 | 80 | 1001.5 |
| 20260503054545 | 23 | 40 | 1.6 | 14.5 | 0.00 | 0.00 | 0.00 | 72 | 1001.8 |
| 20260503053545 | 23 | 66 | 4.8 | 11.3 | 0.00 | 0.00 | 0.00 | 72 | 1001.9 |
| 20260503052547 | 24 | 205 | 3.2 | 11.3 | 0.00 | 0.00 | 0.00 | 71 | 1001.9 |
| 20260503051545 | 24 | 146 | 3.2 | 14.5 | 0.00 | 0.00 | 0.00 | 70 | 1001.9 |
| 20260503050559 | 24 | 207 | 1.6 | 8.0 | 0.00 | 0.00 | 0.00 | 70 | 1002.0 |
| 20260503045545 | 25 | 333 | 1.6 | 6.4 | 0.00 | 0.00 | 0.00 | 70 | 1002.1 |
| 20260503044544 | 25 | 128 | 3.2 | 14.5 | 0.00 | 0.00 | 0.00 | 69 | 1002.1 |
| 20260503044045 | 25 | 70 | 1.6 | 6.4 | 0.00 | 0.00 | 0.00 | 67 | 1002.2 |
| 20260503042543 | 25 | 78 | 1.6 | 6.4 | 0.00 | 0.00 | 0.00 | 65 | 1002.2 |
| 20260503041541 | 25 | 137 | 3.2 | 11.3 | 0.00 | 0.00 | 0.00 | 65 | 1002.3 |
| 20260503040540 | 25 | 94 | 1.6 | 8.0 | 0.00 | 0.00 | 0.00 | 65 | 1002.3 |
| 20260503035542 | 25 | 340 | 3.2 | 8.0 | 0.00 | 0.00 | 0.00 | 65 | 1002.4 |
| 20260503034541 | 25 | 86 | 3.2 | 9.7 | 0.00 | 0.00 | 0.00 | 65 | 1002.4 |
| 20260503033542 | 25 | 343 | 3.2 | 11.3 | 0.00 | 0.00 | 0.00 | 65 | 1002.5 |
| 20260503033059 | 24 | 117 | 1.6 | 9.7 | 0.00 | 0.00 | 0.00 | 65 | 1002.7 |
| 20260503031555 | 24 | 104 | 1.6 | 12.9 | 0.00 | 0.00 | 0.00 | 65 | 1002.9 |
| 20260503030541 | 24 | 15 | 1.6 | 6.4 | 0.00 | 0.00 | 0.00 | 66 | 1003.0 |
| 20260503025542 | 24 | 109 | 3.2 | 11.3 | 0.00 | 0.00 | 0.00 | 65 | 1003.2 |
| 20260503024543 | 24 | 17 | 1.6 | 6.4 | 0.00 | 0.00 | 0.00 | 65 | 1003.4 |
| 20260503023537 | 24 | 133 | 3.2 | 12.9 | 0.00 | 0.00 | 0.00 | 65 | 1003.4 |
| 20260503022539 | 24 | 327 | 3.2 | 17.7 | 0.00 | 0.00 | 0.00 | 65 | 1003.5 |
| 20260503021537 | 24 | 142 | 3.2 | 8.0 | 0.00 | 0.00 | 0.00 | 63 | 1003.9 |
| 20260503020538 | 24 | 140 | 1.6 | 6.4 | 0.00 | 0.00 | 0.00 | 64 | 1004.0 |
| 20260503015537 | 24 | 37 | 3.2 | 16.1 | 0.00 | 0.00 | 0.00 | 64 | 1004.2 |
| 20260503014539 | 23 | 150 | 1.6 | 6.4 | 0.00 | 0.00 | 0.00 | 64 | 1004.4 |
| 20260503013538 | 23 | 46 | 1.6 | 9.7 | 0.00 | 0.00 | 0.00 | 63 | 1004.5 |
| 20260503012532 | 23 | 299 | 3.2 | 8.0 | 0.00 | 0.00 | 0.00 | 63 | 1004.6 |
| 20260503011530 | 23 | 5 | 3.2 | 17.7 | 0.00 | 0.00 | 0.00 | 63 | 1004.7 |
| 20260503010532 | 23 | 27 | 3.2 | 11.3 | 0.00 | 0.00 | 0.00 | 65 | 1004.9 |
| 20260503010035 | 23 | 306 | 3.2 | 14.5 | 0.00 | 0.00 | 0.00 | 67 | 1005.0 |
| 20260503005033 | 22 | 335 | 3.2 | 14.5 | 0.00 | 0.00 | 0.00 | 67 | 1005.2 |
| 20260503004032 | 22 | 27 | 1.6 | 14.5 | 0.00 | 0.00 | 0.00 | 71 | 1005.4 |
| 20260503002532 | 21 | 120 | 3.2 | 14.5 | 0.00 | 0.00 | 0.00 | 72 | 1005.4 |
| 20260503001532 | 21 | 41 | 3.2 | 14.5 | 0.00 | 0.00 | 0.00 | 73 | 1005.5 |
| 20260503000526 | 21 | 299 | 3.2 | 11.3 | 0.00 | 0.00 | 0.00 | 74 | 1005.7 |
| 20260502235528 | 20 | 144 | 3.2 | 12.9 | 0.00 | 0.00 | 0.00 | 77 | 1005.7 |
| 20260502234537 | 20 | 94 | 1.6 | 9.7 | 0.00 | 0.00 | 0.00 | 78 | 1005.7 |
| 20260502233527 | 20 | 36 | 3.2 | 9.7 | 0.00 | 0.00 | 0.00 | 79 | 1005.9 |
| 20260502232524 | 20 | 81 | 1.6 | 6.4 | 0.00 | 0.00 | 0.00 | 80 | 1006.1 |
| 20260502231525 | 19 | 42 | 4.8 | 19.3 | 0.00 | 0.00 | 0.00 | 81 | 1006.1 |
| 20260502231042 | 19 | 340 | 3.2 | 9.7 | 0.00 | 0.00 | 0.00 | 82 | 1006.1 |
| 20260502225525 | 18 | 80 | 1.6 | 6.4 | 0.00 | 0.00 | 0.00 | 83 | 1006.0 |
| 20260502224525 | 18 | 108 | 0.0 | 9.7 | 0.00 | 0.00 | 0.00 | 84 | 1006.1 |
| 20260502224024 | 18 | 317 | 1.6 | 8.0 | 0.00 | 0.00 | 0.00 | 85 | 1006.1 |
| 20260502223025 | 18 | 71 | 1.6 | 9.7 | 0.00 | 0.00 | 0.00 | 86 | 1005.9 |
| 20260502221523 | 17 | 44 | 1.6 | 8.0 | 0.00 | 0.00 | 0.00 | 86 | 1006.0 |
| 20260502220527 | 17 | 13 | 1.6 | 6.4 | 0.00 | 0.00 | 0.00 | 87 | 1006.0 |
| 20260502215522 | 17 | 343 | 1.6 | 4.8 | 0.00 | 0.00 | 0.00 | 88 | 1005.9 |
| 20260502215023 | 17 | 273 | 1.6 | 6.4 | 0.00 | 0.00 | 0.00 | 88 | 1005.9 |